Elyria, OH

9:31 AM EDT on August 29, 2016 (GMT -0400)
Lorain County Regional

Weather History for KLPR - January, 2013

Change the Weather History Date:

Sunday, January 13, 2013

  Actual Average (KCLE) Record (KCLE)
Temperature  
Mean Temperature 50 °F 28 °F  
Max Temperature 64 °F 34 °F 68 °F (2005)
Min Temperature 37 °F 22 °F -10 °F (1977)
Degree Days  
Heating Degree Days 14 37  
Month to date heating degree days 480  
Since 1 July heating degree days 2587  
Cooling Degree Days 0 0  
Month to date cooling degree days 0  
Year to date cooling degree days 0  
Moisture  
Dew Point 46 °F    
Average Humidity 89    
Maximum Humidity 96    
Minimum Humidity 78    
Precipitation  
Precipitation 0.57 in 0.09 in 0.76 in (1968)
Month to date precipitation 1.24  
Year to date precipitation 1.24  
Snow  
Snow 0.00 in 0.60 in - ()
Month to date snowfall 7.6  
Since 1 July snowfall 26.2  
Snow Depth -    
Sea Level Pressure  
Sea Level Pressure 29.86 in    
Wind  
Wind Speed 10 mph (WNW)    
Max Wind Speed 32 mph    
Max Gust Speed 39 mph    
Visibility 6 miles    
Events Rain , Snow    
T = Trace of Precipitation, MM = Missing Value Source: NWS Daily Summary

Daily Weather History Graph

Daily Weather History Graph

Search for Another Location

Airport or City:

Trip Planner

Search our weather history database for the weather conditions in past years. The results will help you decide how hot, cold, wet, or windy it might be!

Date:

Astronomy

Jan. 13, 2013 Rise Set
Actual Time 7:53 AM EST 5:22 PM EST
Civil Twilight 7:22 AM EST 5:52 PM EST
Nautical Twilight 6:48 AM EST 6:27 PM EST
Astronomical Twilight 6:15 AM EST 7:00 PM EST
Moon 8:49 AM EST (1/13) 8:01 PM EST (1/13)
Length of Visible Light 10h 30m
Length of Day
9h 29m
Waxing Crescent, 5% of the Moon is Illuminated
Jan 13
Waxing Crescent
Jan 18
First Quarter
Jan 26
Full
Feb 3
Last Quarter
Feb 10
New

Hourly Weather History & Observations

Time (EST) Temp. Windchill Dew Point Humidity Pressure Visibility Wind Dir Wind Speed Gust Speed Precip Events Conditions
12:03 AM 57.2 °F - 55.4 °F 94% 29.83 in 2.5 mi SSE 9.2 mph - 0.04 in Rain Rain
12:15 AM 59.0 °F - 55.4 °F 88% 29.82 in 4.0 mi South 4.6 mph - 0.06 in Rain Light Rain
12:19 AM 59.0 °F - 57.2 °F 94% 29.83 in 5.0 mi Calm Calm - 0.06 in Rain Light Rain
12:30 AM 57.2 °F - 55.4 °F 94% 29.83 in 2.5 mi Calm Calm - 0.10 in Rain Rain
12:39 AM 59.0 °F - 57.2 °F 94% 29.82 in 1.2 mi South 10.4 mph - 0.18 in Rain Heavy Rain
12:46 AM 59.0 °F - 57.2 °F 94% 29.81 in 3.0 mi South 10.4 mph - 0.19 in Rain Light Rain
12:53 AM 59.0 °F - 55.9 °F 90% 29.80 in 5.0 mi South 11.5 mph - 0.19 in   Overcast
1:06 AM 59.0 °F - 55.4 °F 88% 29.79 in 6.0 mi South 12.7 mph - N/A   Overcast
1:53 AM 61.0 °F - 57.0 °F 87% 29.76 in 9.0 mi South 16.1 mph - N/A   Overcast
2:53 AM 62.1 °F - 57.9 °F 86% 29.76 in 10.0 mi South 12.7 mph - N/A   Overcast
3:53 AM 64.0 °F - 57.0 °F 78% 29.73 in 10.0 mi South 16.1 mph - N/A   Overcast
4:53 AM 63.0 °F - 57.0 °F 81% 29.72 in 10.0 mi SSW 15.0 mph - 0.01 in   Overcast
5:53 AM 63.0 °F - 57.0 °F 81% 29.72 in 10.0 mi SSW 16.1 mph 28.8 mph 0.03 in Rain Light Rain
6:53 AM 63.0 °F - 57.0 °F 81% 29.77 in 9.0 mi West 15.0 mph - 0.04 in Rain Light Rain
7:24 AM 60.8 °F - 55.4 °F 82% 29.76 in 10.0 mi SW 12.7 mph - 0.00 in   Mostly Cloudy
7:53 AM 60.1 °F - 55.9 °F 86% 29.78 in 10.0 mi SW 10.4 mph - 0.00 in Rain Light Rain
8:14 AM 55.4 °F - 51.8 °F 88% 29.83 in 9.0 mi NW 32.2 mph 39.1 mph 0.01 in Rain Light Rain
8:22 AM 44.6 °F 35.1 °F 41.0 °F 87% 29.86 in 6.0 mi NW 27.6 mph 39.1 mph 0.01 in   Overcast
8:32 AM 44.6 °F 39.2 °F 42.8 °F 93% 29.86 in 6.0 mi WNW 10.4 mph - 0.01 in   Overcast
8:50 AM 44.6 °F 40.7 °F 42.8 °F 93% 29.86 in 7.0 mi SW 6.9 mph - 0.01 in   Overcast
8:53 AM 45.0 °F 41.2 °F 43.0 °F 93% 29.87 in 7.0 mi WSW 6.9 mph - 0.01 in   Overcast
9:06 AM 44.6 °F 40.7 °F 42.8 °F 93% 29.85 in 7.0 mi SW 6.9 mph - 0.00 in Rain Light Rain
9:42 AM 44.6 °F 38.4 °F 42.8 °F 93% 29.88 in 6.0 mi NNW 12.7 mph - 0.00 in   Overcast
9:53 AM 43.0 °F 36.8 °F 39.9 °F 89% 29.90 in 7.0 mi NW 11.5 mph - 0.00 in   Overcast
10:16 AM 42.8 °F 41.1 °F 39.2 °F 87% 29.88 in 9.0 mi WNW 3.5 mph - N/A   Mostly Cloudy
10:30 AM 42.8 °F 41.1 °F 41.0 °F 93% 29.88 in 9.0 mi SSW 3.5 mph - N/A   Mostly Cloudy
10:53 AM 45.0 °F 43.5 °F 42.1 °F 90% 29.89 in 8.0 mi NNW 3.5 mph - N/A   Mostly Cloudy
11:30 AM 46.4 °F 45.2 °F 44.6 °F 93% 29.86 in 9.0 mi Variable 3.5 mph - N/A   Overcast
11:53 AM 48.9 °F - 45.0 °F 86% 29.80 in 9.0 mi SSE 12.7 mph - N/A   Scattered Clouds
12:29 PM 48.2 °F - 44.6 °F 87% 29.86 in 9.0 mi NW 13.8 mph - N/A   Mostly Cloudy
12:53 PM 48.0 °F - 45.0 °F 89% 29.86 in 8.0 mi WNW 9.2 mph - N/A   Overcast
1:53 PM 48.0 °F - 44.1 °F 86% 29.86 in 10.0 mi NNW 8.1 mph - N/A   Overcast
2:53 PM 46.9 °F - 43.0 °F 86% 29.86 in 9.0 mi Calm Calm - N/A   Overcast
3:24 PM 48.2 °F - 44.6 °F 87% 29.86 in 7.0 mi NNW 3.5 mph - N/A   Overcast
3:53 PM 46.0 °F 43.1 °F 42.1 °F 86% 29.87 in 9.0 mi NE 5.8 mph - N/A   Overcast
4:00 PM 46.4 °F 43.5 °F 42.8 °F 87% 29.87 in 9.0 mi NE 5.8 mph - N/A   Overcast
4:53 PM 43.0 °F 38.8 °F 39.0 °F 86% 29.90 in 9.0 mi NNE 6.9 mph - N/A   Overcast
5:10 PM 42.8 °F 39.3 °F 39.2 °F 87% 29.89 in 2.5 mi North 5.8 mph - 0.00 in Rain Light Rain
5:19 PM 42.8 °F 38.6 °F 39.2 °F 87% 29.89 in 3.0 mi NNE 6.9 mph - 0.01 in Rain Light Rain
5:26 PM 42.8 °F 38.6 °F 39.2 °F 87% 29.89 in 1.8 mi North 6.9 mph - 0.01 in Rain Light Rain
5:53 PM 41.0 °F 37.1 °F 39.9 °F 96% 29.90 in 1.8 mi NNE 5.8 mph - 0.03 in Rain Light Rain
6:02 PM 42.8 °F 39.3 °F 39.2 °F 87% 29.89 in 2.5 mi Variable 5.8 mph - 0.00 in Rain Light Rain
6:10 PM 41.0 °F 36.4 °F 39.2 °F 93% 29.90 in 3.0 mi North 6.9 mph - 0.01 in Rain Rain
6:53 PM 41.0 °F 33.5 °F 39.0 °F 93% 29.94 in 6.0 mi NW 13.8 mph - 0.08 in Rain Light Rain
7:53 PM 39.9 °F 37.8 °F 37.9 °F 93% 29.87 in 10.0 mi NE 3.5 mph - 0.07 in   Overcast
8:53 PM 39.9 °F 32.5 °F 37.9 °F 93% 29.92 in 7.0 mi NW 12.7 mph - 0.01 in Rain Light Rain
9:53 PM 39.0 °F 30.6 °F 37.0 °F 93% 29.94 in 2.5 mi NW 15.0 mph - 0.07 in Rain Rain
10:06 PM 39.2 °F 30.2 °F 37.4 °F 93% 29.93 in 3.0 mi NW 17.3 mph 23.0 mph 0.02 in Rain Light Rain
10:53 PM 37.9 °F 27.9 °F 36.0 °F 93% 30.01 in 3.0 mi NW 19.6 mph 27.6 mph 0.03 in Snow Light Snow
11:13 PM 37.4 °F 26.9 °F 33.8 °F 87% 30.01 in 4.0 mi NW 20.7 mph 32.2 mph 0.00 in Snow Light Snow
11:53 PM 37.0 °F 28.5 °F 34.0 °F 89% 30.05 in 6.0 mi NW 13.8 mph - 0.00 in   Overcast